sat.trackr.live / text

‹ back to catalog

STARLINK-32864

NORAD 62862 · 2025-022J

PAYLOAD ACTIVE UNKNOWN

§ Identity

Operator
Country
US
Launch date
2025-02-01
Launch site
AFWTR
Launch vehicle
Mass (kg)
RCS (m²)

Purposes: comms

External: N2YO · Heavens-Above · Gunter

§ Orbital elements

Epoch: 2026-05-25T02:59:15.122112Z

Period
94.10 min
Inclination
53.1572°
Eccentricity
0.0001585
Mean motion
15.30215824 rev/d
Perigee alt
474.1 km
Apogee alt
476.3 km
Semi-major
6,853.3 km
B*
4.6556e-4
RAAN
134.4974°
Arg perigee
117.9043°
Mean anomaly
242.2118°
Rev number
7,360

§ Raw data

STARLINK-328641 62862U 25022J   26145.12448058  .00013461  00000+0  46556-3 0  99982 62862  53.1572 134.4974 0001585 117.9043 242.2118 15.30215824 73602

JSON: /api/v1/satellites/62862 · /tle

For live sub-satellite position, see the globe view (requires WebGL).

§ Visibility from observer

Set your observer location to see the next 7 days of passes ≥ 10°. The values pass through the URL so the page stays shareable.

No JS? Fill the form by hand. The geolocation button needs JavaScript.